THOR ABLESTAR DEB, 402

Orbit data source: Space-Track

THOR ABLESTAR DEB, 402 is space debris in LEO originally from a launch on Thu, 29 Jun 1961 UTC launched from the Air Force Eastern Test Range (AFETR). Debris objects in space refer to the collection of defunct objects orbiting the Earth. Examples of debris include non-operational satellites, rocket bodies, and fragments generated from explosions, collisions, or faulty payload assembly.

Loading next visibility...
Identifier
402, 1961-015EB
Orbit
LEO
Country
Flag of USUS
Related business
Manufacturer
Unknown
Mission
Spacecraft
Bus & Motor
Unknown
Mass
Unknown
Launch date (UTC)
1961-06-29 (65 years ago)
Launch vehicle
Unknown
Launch site
Air Force Eastern Test Range (AFETR)
Object type
Payload
Rocket body
Debris
Shape & HBR
Unknown shape, 0.1 m
Radar Cross Section
Medium (>0.1 m² and <1 m²)

Expand to show TLE details & history
Last TLE update: 6 hours ago

TLE from 6 hours ago
0 THOR ABLESTAR DEB
1   402U 61015EB  26178.17243556  .00006979  00000-0  10765-2 0  9998
2   402  66.6490 203.3478 0032625 295.6408  64.1343 14.73590348342697
Epoch: 2026-06-27T04:08Z
TLE epoch observation values (Epoch: 2026-06-27T04:08:18.432Z)
Latitude
0.00004°
Longitude
-134.01939°
Altitude
641.832 km
Speed
7.543 km/s
True Right ascension
13h 33m 23s
True Declination
0° 00' 00"
Sunlit
Object was in daylight at epoch
Visualization orbit readout
Latitude
Unknown
Longitude
Unknown
Altitude
Unknown
Speed
Unknown
Apparent Right ascension
Unknown
Apparent Declination
Unknown
Sunlit
N/A
Visualization observer readout
Local Sidereal Time
21:08:25
Azimuth
Unknown
Elevation
Unknown
Doppler factor
Unknown
Orbital elements
Apogee altitude
670.9 km
Perigee altitude
625.055 km
Semi-major axis
7,026.115 km
Eccentricity
0.00326
Inclination
66.649°
RAAN
203.3478°
Arg. of periapsis
295.6408°
True anomaly
64.4713°
Mean anomaly
64.1343°
Eccentric anomaly
64.30274°
Mean motion
3.68528 °/min
Orbital period
97.69 mins
BSTAR
0.0010765
Loading maneuver chart data...
Computing Atmospheric mass density...

Documentation

Showing up to 5 results
|